| time (UTC) | temp F | wind direction | speed MPH | gust MPH | rain 1hr in | rain 24hr in | rain mn in | humidity % | barometer mb |
| 20260905164520 | 77 | 318 | 0.0 | 2.0 | 0.00 | 0.00 | 0.00 | 68 | 1012.1 |
| 20260905163015 | 76 | 301 | 0.0 | 7.0 | 0.00 | 0.00 | 0.00 | 69 | 1012.2 |
| 20260905161510 | 76 | 305 | 0.0 | 10.0 | 0.00 | 0.00 | 0.00 | 69 | 1012.3 |
| 20260905160006 | 75 | 332 | 0.0 | 6.0 | 0.00 | 0.00 | 0.00 | 70 | 1012.6 |
| 20260905154502 | 75 | 99 | 0.0 | 5.0 | 0.00 | 0.00 | 0.00 | 70 | 1012.6 |
| 20260905153059 | 74 | 6 | 0.0 | 4.0 | 0.00 | 0.00 | 0.00 | 72 | 1012.4 |
| 20260905151601 | 74 | 307 | 0.0 | 3.0 | 0.00 | 0.00 | 0.00 | 73 | 1012.5 |
| 20260905150055 | 75 | 352 | 0.0 | 5.0 | 0.00 | 0.00 | 0.00 | 72 | 1012.3 |
| 20260905144557 | 74 | 309 | 0.0 | 5.0 | 0.00 | 0.00 | 0.00 | 74 | 1012.1 |
| 20260905143052 | 73 | 20 | 0.0 | 4.0 | 0.00 | 0.00 | 0.00 | 77 | 1012.1 |
| 20260905141550 | 73 | 345 | 0.0 | 3.0 | 0.00 | 0.00 | 0.00 | 78 | 1012.1 |
| 20260905140049 | 73 | 345 | 0.0 | 2.0 | 0.00 | 0.00 | 0.00 | 78 | 1012.2 |
| 20260905134557 | 73 | 29 | 0.0 | 5.0 | 0.00 | 0.00 | 0.00 | 78 | 1012.2 |
| 20260905133054 | 72 | 38 | 0.0 | 4.0 | 0.00 | 0.00 | 0.00 | 80 | 1012.2 |
| 20260905131547 | 72 | 1 | 1.0 | 3.0 | 0.00 | 0.00 | 0.00 | 79 | 1012.2 |
| 20260905130044 | 72 | 20 | 1.0 | 4.0 | 0.00 | 0.00 | 0.00 | 79 | 1011.7 |
| 20260905124544 | 72 | 33 | 0.0 | 5.0 | 0.00 | 0.00 | 0.00 | 78 | 1011.8 |
| 20260905123044 | 71 | 356 | 0.0 | 5.0 | 0.00 | 0.00 | 0.00 | 79 | 1011.8 |
| 20260905121541 | 71 | 286 | 0.0 | 0.0 | 0.00 | 0.00 | 0.00 | 80 | 1012.0 |
| 20260905120043 | 71 | 356 | 0.0 | 0.0 | 0.00 | 0.00 | 0.00 | 81 | 1011.9 |
| 20260905114538 | 70 | 22 | 0.0 | 0.0 | 0.00 | 0.00 | 0.00 | 81 | 1011.6 |
| 20260905113038 | 70 | 13 | 0.0 | 2.0 | 0.00 | 0.00 | 0.00 | 82 | 1011.8 |
| 20260905111541 | 70 | 314 | 0.0 | 3.0 | 0.00 | 0.00 | 0.00 | 83 | 1011.5 |
| 20260905110043 | 70 | 70 | 0.0 | 2.0 | 0.00 | 0.00 | 0.00 | 84 | 1011.1 |
| 20260905104535 | 70 | 64 | 0.0 | 3.0 | 0.00 | 0.00 | 0.00 | 84 | 1011.1 |
| 20260905103035 | 70 | 1 | 0.0 | 2.0 | 0.00 | 0.00 | 0.00 | 85 | 1011.0 |
| 20260905101537 | 70 | 45 | 0.0 | 3.0 | 0.00 | 0.00 | 0.00 | 87 | 1010.8 |
| 20260905100032 | 70 | 79 | 0.0 | 3.0 | 0.00 | 0.00 | 0.00 | 89 | 1010.7 |
| 20260905094530 | 70 | 43 | 0.0 | 3.0 | 0.00 | 0.00 | 0.00 | 91 | 1010.7 |
| 20260905093030 | 70 | 34 | 0.0 | 0.0 | 0.00 | 0.00 | 0.00 | 91 | 1010.6 |
| 20260905091529 | 71 | 43 | 0.0 | 0.0 | 0.00 | 0.00 | 0.00 | 92 | 1010.6 |
| 20260905090032 | 71 | 312 | 0.0 | 0.0 | 0.00 | 0.00 | 0.00 | 92 | 1010.9 |
| 20260905084528 | 71 | 312 | 0.0 | 0.0 | 0.00 | 0.00 | 0.00 | 92 | 1010.7 |
| 20260905083028 | 70 | 336 | 0.0 | 0.0 | 0.00 | 0.00 | 0.00 | 92 | 1010.5 |
| 20260905081529 | 70 | 336 | 0.0 | 0.0 | 0.00 | 0.00 | 0.00 | 91 | 1010.6 |
| 20260905080025 | 71 | 335 | 0.0 | 0.0 | 0.00 | 0.00 | 0.00 | 91 | 1010.6 |
| 20260905074531 | 71 | 335 | 0.0 | 0.0 | 0.00 | 0.00 | 0.00 | 91 | 1010.6 |
| 20260905073023 | 71 | 335 | 0.0 | 0.0 | 0.00 | 0.00 | 0.00 | 92 | 1010.7 |
| 20260905071521 | 71 | 340 | 0.0 | 0.0 | 0.00 | 0.00 | 0.00 | 91 | 1010.7 |
| 20260905070021 | 72 | 322 | 0.0 | 0.0 | 0.00 | 0.00 | 0.00 | 91 | 1010.7 |
| 20260905064520 | 72 | 322 | 0.0 | 0.0 | 0.00 | 0.00 | 0.00 | 91 | 1010.9 |
| 20260905063019 | 71 | 19 | 0.0 | 0.0 | 0.00 | 0.00 | 0.00 | 91 | 1010.9 |
| 20260905061518 | 71 | 31 | 0.0 | 2.0 | 0.00 | 0.00 | 0.00 | 91 | 1010.8 |
| 20260905060015 | 71 | 15 | 0.0 | 2.0 | 0.00 | 0.00 | 0.00 | 91 | 1011.0 |
| 20260905054513 | 72 | 17 | 0.0 | 0.0 | 0.00 | 0.00 | 0.00 | 90 | 1011.1 |
| 20260905053011 | 72 | 69 | 0.0 | 0.0 | 0.00 | 0.00 | 0.00 | 90 | 1011.2 |
| 20260905051512 | 73 | 23 | 0.0 | 0.0 | 0.00 | 0.00 | 0.00 | 90 | 1011.2 |
| 20260905050008 | 73 | 25 | 0.0 | 1.0 | 0.00 | 0.00 | 0.00 | 90 | 1011.3 |
| 20260905044510 | 73 | 40 | 0.0 | 3.0 | 0.00 | 0.00 | 0.00 | 90 | 1011.3 |
| 20260905043003 | 73 | 290 | 0.0 | 0.0 | 0.00 | 0.00 | 0.00 | 88 | 1011.4 |
| 20260905041504 | 73 | 290 | 0.0 | 2.0 | 0.00 | 0.00 | 0.00 | 88 | 1011.7 |
| 20260905040058 | 74 | 261 | 0.0 | 2.0 | 0.00 | 0.00 | 0.00 | 87 | 1011.7 |
| 20260905034557 | 74 | 291 | 0.0 | 2.0 | 0.00 | 0.01 | 0.00 | 88 | 1011.6 |
| 20260905033056 | 73 | 333 | 0.0 | 5.0 | 0.00 | 0.01 | 0.00 | 91 | 1011.5 |
| 20260905031605 | 73 | 252 | 0.0 | 1.0 | 0.00 | 0.01 | 0.00 | 92 | 1011.6 |
| 20260905030100 | 73 | 247 | 0.0 | 0.0 | 0.00 | 0.01 | 0.00 | 91 | 1011.5 |
| 20260905024601 | 73 | 247 | 0.0 | 0.0 | 0.00 | 0.01 | 0.00 | 91 | 1011.4 |
| 20260905023053 | 73 | 247 | 0.0 | 0.0 | 0.00 | 0.01 | 0.00 | 91 | 1011.5 |
| 20260905021553 | 73 | 247 | 0.0 | 0.0 | 0.00 | 0.01 | 0.00 | 90 | 1011.5 |
| 20260905020053 | 74 | 247 | 0.0 | 0.0 | 0.00 | 0.01 | 0.00 | 90 | 1011.5 |
| 20260905014557 | 74 | 247 | 0.0 | 0.0 | 0.00 | 0.01 | 0.00 | 90 | 1011.4 |
| 20260905013058 | 74 | 247 | 0.0 | 0.0 | 0.00 | 0.01 | 0.00 | 90 | 1011.4 |
| 20260905011551 | 74 | 247 | 0.0 | 0.0 | 0.00 | 0.01 | 0.00 | 90 | 1011.3 |
| 20260905010050 | 74 | 247 | 0.0 | 0.0 | 0.00 | 0.01 | 0.00 | 89 | 1011.4 |
| 20260905004606 | 74 | 247 | 0.0 | 0.0 | 0.00 | 0.01 | 0.00 | 89 | 1011.5 |
| 20260905003050 | 75 | 247 | 0.0 | 0.0 | 0.00 | 0.01 | 0.00 | 88 | 1011.3 |
| 20260905001549 | 75 | 247 | 0.0 | 1.0 | 0.00 | 0.01 | 0.00 | 87 | 1011.2 |
| 20260905000050 | 76 | 237 | 0.0 | 0.0 | 0.00 | 0.01 | 0.00 | 86 | 1011.2 |
| 20260904234548 | 77 | 237 | 0.0 | 1.0 | 0.00 | 0.01 | 0.00 | 85 | 1011.3 |
| 20260904233048 | 78 | 226 | 0.0 | 1.0 | 0.00 | 0.01 | 0.00 | 83 | 1011.4 |
| 20260904231547 | 79 | 226 | 0.0 | 0.0 | 0.00 | 0.01 | 0.00 | 82 | 1011.0 |
| 20260904224544 | 80 | 238 | 0.0 | 1.0 | 0.00 | 0.01 | 0.00 | 78 | 1011.5 |
| 20260904223046 | 81 | 238 | 0.0 | 0.0 | 0.00 | 0.01 | 0.00 | 77 | 1011.5 |
| 20260904221544 | 82 | 239 | 0.0 | 1.0 | 0.00 | 0.01 | 0.00 | 76 | 1011.4 |
| 20260904220043 | 82 | 252 | 0.0 | 1.0 | 0.00 | 0.01 | 0.00 | 73 | 1011.3 |
| 20260904214541 | 83 | 225 | 0.0 | 1.0 | 0.00 | 0.01 | 0.00 | 75 | 1011.5 |
| 20260904213040 | 82 | 243 | 0.0 | 1.0 | 0.00 | 0.01 | 0.00 | 73 | 1011.9 |
| 20260904211539 | 83 | 260 | 0.0 | 3.0 | 0.00 | 0.01 | 0.00 | 71 | 1011.8 |
| 20260904210039 | 83 | 228 | 0.0 | 4.0 | 0.00 | 0.01 | 0.00 | 72 | 1012.2 |
| 20260904204538 | 83 | 275 | 0.0 | 2.0 | 0.00 | 0.01 | 0.00 | 70 | 1012.1 |
| 20260904203038 | 83 | 315 | 0.0 | 1.0 | 0.00 | 0.01 | 0.00 | 71 | 1011.9 |
| 20260904201538 | 83 | 33 | 0.0 | 0.0 | 0.00 | 0.01 | 0.00 | 71 | 1011.6 |
| 20260904200036 | 84 | 320 | 0.0 | 4.0 | 0.00 | 0.01 | 0.00 | 68 | 1011.7 |
| 20260904194536 | 85 | 314 | 1.0 | 10.0 | 0.00 | 0.01 | 0.00 | 68 | 1012.1 |
| 20260904193038 | 84 | 274 | 1.0 | 9.0 | 0.00 | 0.01 | 0.00 | 69 | 1012.4 |
| 20260904191533 | 84 | 281 | 1.0 | 11.0 | 0.00 | 0.01 | 0.00 | 70 | 1012.7 |
| 20260904190038 | 84 | 344 | 1.0 | 6.0 | 0.00 | 0.01 | 0.00 | 70 | 1012.8 |
| 20260904184529 | 83 | 286 | 0.0 | 9.0 | 0.00 | 0.01 | 0.00 | 70 | 1012.9 |
| 20260904183028 | 83 | 285 | 0.0 | 12.0 | 0.00 | 0.01 | 0.00 | 69 | 1013.0 |
| 20260904181530 | 82 | 250 | 2.0 | 9.0 | 0.00 | 0.01 | 0.00 | 71 | 1013.2 |
| 20260904180027 | 82 | 290 | 0.0 | 4.0 | 0.00 | 0.01 | 0.00 | 72 | 1013.1 |
| 20260904174526 | 83 | 294 | 1.0 | 7.0 | 0.00 | 0.01 | 0.00 | 70 | 1013.2 |
| 20260904173025 | 83 | 6 | 2.0 | 9.0 | 0.00 | 0.01 | 0.00 | 68 | 1013.3 |
| 20260904171526 | 83 | 346 | 0.0 | 11.0 | 0.00 | 0.01 | 0.00 | 71 | 1013.2 |
| 20260904170023 | 82 | 299 | 2.0 | 9.0 | 0.00 | 0.01 | 0.00 | 70 | 1013.1 |